Location: Brown Observing Site
(43.4354°N, 116.3366°W)
Time: 03:25:53
(UTC-06:00)

Envisat - Pass Details

Date: 10 October 2020
Orbit: 764 x 766 km, 98.1° (Epoch: 23 October)

Event Time Altitude Azimuth Distance (km) Brightness Sun altitude
Rises 19:27:17 0° 184° (S) 3,215 6.4 -4.0°
Reaches altitude 10° 19:29:42 10° 192° (SSW) 2,294 5.7 -4.5°
Maximum altitude 19:34:28 42° 262° (W) 1,090 4.6 -5.3°
Drops below altitude 10° 19:39:17 10° 333° (NNW) 2,309 5.8 -6.2°
Sets 19:41:43 0° 340° (NNW) 3,239 6.5 -6.6°
